Flag for U.S.A. Weather past 2 weeks in Jersey City, New Jersey, U.S.A.

Now
37 °F

Broken clouds.


Feels Like: 28 °F
Forecast: 19 / 36 °F
Wind: 16 mph from Northwest

Location: Newark International Airport

Current Time: Jan 30, 2015 at 2:15:04 PM

Latest Report: Jan 30, 2015 at 1:51 PM


Visibility: 10 mi

Pressure: 29.83 "Hg

Humidity: 54%

Dew point: 22 °F

Location of Jersey CityLocation

Historic Weather in Jersey City — Graph

°F

Jersey City temperature yesterday

Maximum temperature yesterday: 32 °F (at 5:51 PM)
Minimum temperature yesterday: 16 °F (at 3:51 AM)
Average temperature yesterday: 26 °F

Past Weeks' High & Low Weather Summary

 TemperatureHumidityPressure
High42 °F (Jan 16, 1:51 PM)100% (Jan 18, 12:59 PM)30.41 "Hg (Jan 18, 12:59 PM)
Low15 °F (Jan 28, 3:51 AM)28% (Jan 17, 2:51 PM)29.29 "Hg (Jan 24, 2:51 PM)
Average30 °F62%29.98 "Hg
* Reported Jan 15 12:51 PM — Jan 30 12:51 PM, Jersey City, Weather by CustomWeather, © 2014

Note: Actual official high and low records may vary slightly from our data, if they occured in-between our weather recording intervals... More about our weather records

Advertising

Jersey City weather history for previous 24 hours

 ConditionsComfort  
Time TempWeatherWind HumidityBarometerVisibility
12:51 PM
Jan 30
36 °FMostly cloudy.16 mph64%29.84 "Hg10 mi
11:51 AM35 °FLight snow. Cloudy.18 mph70%29.86 "Hg9 mi
10:51 AM35 °FLight snow. Overcast.12 mph72%29.87 "Hg9 mi
9:51 AM32 °FMore clouds than sun.10 mph85%29.88 "Hg8 mi
8:51 AM31 °FLight snow. Ice fog.6 mph85%29.89 "Hg3 mi
7:51 AM31 °FLight snow. Ice fog.7 mph85%29.86 "Hg5 mi
6:51 AM32 °FMostly cloudy.7 mph82%29.85 "Hg10 mi
5:51 AM32 °FMostly cloudy.5 mph85%29.85 "Hg9 mi
4:51 AM33 °FLight snow. Mostly cloudy.5 mph82%29.86 "Hg9 mi
3:51 AM32 °FLight snow. Overcast.No wind92%29.87 "Hg10 mi
2:51 AM32 °FLight snow. Overcast.8 mph92%29.90 "Hg10 mi
1:51 AM31 °FLight snow. Ice fog.No wind92%29.93 "Hg3 mi
12:51 AM30 °FLight snow. Ice fog.3 mph96%29.96 "Hg2 mi
11:59 PM
Jan 29
30 °FLight snow. Ice fog.3 mph93%29.99 "Hg1 mi
10:51 PM32 °FLight snow. Mostly cloudy.No wind75%30.03 "Hg10 mi
9:51 PM32 °FLight snow. Mostly cloudy.3 mph73%30.05 "Hg10 mi
8:51 PM32 °FLight snow. Mostly cloudy.6 mph64%30.07 "Hg10 mi
7:51 PM32 °FMostly cloudy.3 mph61%30.09 "Hg10 mi
6:51 PM32 °FMostly cloudy.7 mph59%30.11 "Hg10 mi
5:51 PM32 °FMostly cloudy.7 mph66%30.13 "Hg10 mi
4:51 PM31 °FMostly cloudy.5 mph67%30.13 "Hg10 mi
3:51 PM30 °FMostly cloudy.5 mph61%30.16 "Hg10 mi
2:51 PM30 °FMostly cloudy.5 mph47%30.19 "Hg10 mi
Weather by CustomWeather, © 2014

See weather overviewHow to use our weather pages